Vertical_Velocity
1 3 3 1 2 -0 1 4 2 -3 3 -1 7 -4 5 -13 3 4 9 -5 -5 2 -1 0 -2 1 -1 4 1 -1 -1 -0 -2 -0 2 1 -1 -1 -2 -7 9 -11 7 -2 8 3 -0
0 -1 0 -2 3 3 -4 -1 -1 -2 0 7 -5 2 1 -5 -6 -4 2 -3 -7 -2 -1 -2 -3 3 -0 1 0 -2 -1 -2 -3 -0 -1 -2 -2 2 -5 -5 0 -6 3 -1 4 1 -2
-2 2 -2 -3 -2 -1 10 -0 -2 3 -2 -2 -2 3 -0 1 20 15 8 3 -6 -1 -0 2 -2 3 0 1 -6 -3 -3 -4 -2 -3 -5 1 1 -3 3 3 2 -6 2 2 -8 -0 4
1 -2 -0 2 1 -4 -6 3 10 -6 -2 3 4 -1 -1 5 4 12 6 5 -6 -4 3 -2 -0 1 3 -7 -2 -2 -4 -2 -3 0 -1 -2 -1 -2 -2 4 5 -1 10 4 1 1 5
-3 -2 -0 0 1 -0 4 -1 -3 3 1 -2 1 2 -1 1 5 8 9 -1 -1 -2 1 -4 1 4 -7 -3 -0 2 4 4 1 3 -1 1 1 18 18 5 5 20 1 -1 4 -1 -1
2 -4 -4 -2 4 1 -1 0 0 -3 7 -0 -6 -3 7 0 14 4 12 -9 -1 -1 -1 1 2 -3 -3 4 -2 1 -7 -5 -4 -2 -3 1 0 9 0 5 -12 6 -3 1 7 -4 -2
1 -1 2 -3 -2 -1 2 -2 -4 -6 4 4 -1 -2 -0 -1 12 8 5 -3 0 -2 0 2 -0 -4 0 -2 1 -5 4 -3 -4 0 -2 -5 12 -2 2 -2 8 26 0 -2 6 11 3
-5 -3 -4 -0 -3 -1 -2 -0 -3 -6 0 1 2 1 -2 -1 2 7 6 -0 1 3 -2 1 -2 -1 2 -2 -2 -4 -0 -2 2 -1 2 1 -6 -2 5 -0 4 11 3 9 13 5 3
-2 -3 -1 -1 1 1 -8 -3 -3 -5 -8 2 1 -1 -1 1 -0 -1 2 -0 4 1 3 -0 0 -1 1 -4 -3 -1 -2 4 1 -0 4 0 1 2 -2 2 -4 2 -5 3 -14 4 14
0 0 4 -1 2 -1 -3 1 -0 -1 -8 2 6 -3 2 -4 10 6 -4 0 4 1 2 0 -1 1 0 -3 -2 -3 3 0 -2 -1 -1 6 8 9 -7 -1 1 0 5 8 -2 4 -3
1 0 5 7 -0 1 0 -2 2 1 6 3 2 -5 -1 -0 6 10 -4 -1 4 3 -5 -1 -0 0 -1 -3 -2 0 -3 -3 2 10 13 9 5 7 7 -4 1 -1 7 10 6 -2 -12
-3 6 6 3 -1 -2 1 -4 -5 -6 1 -0 -3 -3 -0 1 5 6 -2 1 4 2 -11 -2 0 -3 -5 -2 -4 0 1 1 10 8 6 -0 -2 3 -2 1 4 0 -0 12 1 6 -6
5 12 1 2 0 -0 0 0 -2 3 -3 -3 1 1 -3 1 6 1 2 -2 4 -2 0 -0 -0 -2 -4 -0 2 1 1 3 0 -8 3 14 11 3 3 7 10 6 3 -1 -4 -4 2
6 4 5 1 1 2 11 15 -2 -2 -5 5 4 0 -4 5 2 -2 3 1 2 2 -1 -0 -1 -1 -2 -4 7 1 -2 1 5 -2 -0 -1 -2 -6 10 -6 -1 5 -2 -3 -3 -1 -2
2 1 3 -0 3 -1 -0 2 -1 -1 -2 5 7 -4 -2 5 8 -4 3 -2 1 2 -1 -0 -2 -2 -0 1 -0 -1 -2 -1 3 1 -2 -4 2 -4 -2 4 -2 0 1 2 -4 3 -3
-2 -2 1 -2 4 -4 5 21 21 2 1 2 5 -0 -0 1 8 2 3 -0 1 2 -1 2 -2 -1 -5 -1 1 3 1 -0 -1 -1 2 -0 -1 2 6 -3 -4 -6 -3 3 0 -2 -0
-1 -1 3 -3 -7 9 7 31 -3 12 0 9 -1 2 5 8 -5 3 -0 -1 1 1 -0 0 0 -2 -3 -1 0 -1 1 1 4 2 -2 2 1 4 -4 2 2 2 0 -2 -2 -2 -3
2 3 -4 -12 3 2 -11 2 -8 -17 0 -6 -0 7 5 4 -2 2 2 -0 1 1 -0 -0 -1 -0 -0 -1 0 -1 -2 -2 2 0 -0 -1 -4 -1 -1 -0 -1 0 -3 4 -0 -0 -2
1 -4 1 17 8 11 -11 5 -0 1 -10 -9 -3 3 3 -1 -3 1 2 -0 -1 -0 -0 -0 -1 -1 -0 -0 0 0 -0 -2 -2 -1 -1 -2 -4 -3 -2 5 1 -0 1 -2 -3 -3 0
-1 13 16 8 -0 -11 -10 -2 3 3 0 6 -4 -6 4 -2 -0 5 3 -0 -3 0 2 -2 -2 -1 -2 -2 -0 -0 0 -1 -0 1 -1 -2 -2 -1 -5 2 3 3 -0 -0 -0 -2 1
14 14 1 7 -0 -1 2 -4 -3 0 -3 -0 2 -1 -2 -13 -3 2 3 3 -1 -4 -1 -1 1 -1 -1 -1 -1 -2 -1 -1 -1 1 -1 -1 -3 -0 -3 -3 -3 -7 -6 2 2 -1 -3
12 2 1 3 -7 -2 -1 -2 -1 -16 -3 2 2 3 -3 1 2 0 0 -1 0 -1 -1 -1 0 -3 -2 -3 -2 -2 -0 -0 -2 -1 1 -1 -3 1 -0 -1 1 0 -3 -3 -0 -6 -7
-3 -8 4 -7 10 -1 2 1 -5 -3 -3 -2 -0 -1 -2 1 1 1 -2 0 1 4 0 0 1 -1 -1 -2 -1 0 0 1 -2 -1 -3 -2 -3 -1 -1 -0 0 -0 -2 2 4 3 3
4 -6 -2 -1 -2 2 -1 -4 -4 -3 1 1 -1 2 -1 -0 1 0 -1 0 2 2 2 -0 -1 -3 -1 0 -1 1 2 -1 -2 -2 -2 -2 0 -1 -2 1 -5 -1 -0 1 -2 -0 1
1 5 -3 -2 -3 -5 -4 -3 -4 -5 2 -1 -2 -1 0 -2 2 -0 -2 -1 -2 0 -1 2 -1 0 -1 -1 -0 -1 -2 -1 -1 -1 -1 -0 -1 -1 -2 -1 0 0 2 0 -1 -1 -3
1 0 -3 -3 -5 -9 -8 -4 -5 0 1 -1 -2 -1 -2 1 -3 -2 -2 0 1 0 -1 0 -1 -2 -0 -1 -1 -2 -1 -1 -1 -1 -2 -2 -3 -2 -3 -1 -2 -2 -2 -1 1 -7 -3
4 2 5 -0 -3 -2 -5 -4 -5 -2 -2 1 -4 -1 -2 -2 -1 -3 -3 -2 -2 -2 -2 -1 -2 -1 3 -2 -2 -1 -1 -1 -1 -1 -2 -2 -1 -1 -2 -2 -1 -4 -0 -2 -1 -0 -4
4 0 4 1 -0 -2 -6 -6 -1 -1 -2 -2 0 -1 -2 -3 -1 -1 -0 -1 -1 -2 1 -1 2 -2 -1 -2 -2 -2 -0 -1 -1 -2 -2 -1 -2 -2 -1 -1 -4 -3 1 -3 -2 -3 2
-5 1 -1 3 -4 -3 0 -3 -5 -3 -5 -3 -1 -2 -2 -2 -1 -0 -1 -1 0 0 1 -1 -3 -2 -2 -1 -0 -1 -0 -0 0 -2 -1 -3 -2 -2 -2 -3 -2 -2 -2 -1 -1 1 -1
Height
3096 3092 3089 3086 3083 3081 3080 3078 3077 3076 3075 3075 3075 3073 3072 3071 3069 3066 3063 3058 3054 3049 3046 3044 3042 3041 3040 3040 3038 3037 3036 3036 3036 3035 3035 3035 3036 3037 3037 3038 3040 3043 3044 3047 3051 3056 3060
3087 3084 3081 3077 3074 3072 3070 3068 3067 3067 3066 3065 3067 3067 3066 3066 3063 3062 3056 3053 3049 3044 3042 3040 3038 3038 3037 3038 3034 3032 3032 3032 3032 3032 3031 3032 3032 3032 3030 3031 3034 3037 3040 3043 3047 3051 3056
3077 3073 3069 3066 3063 3061 3060 3059 3057 3057 3057 3057 3058 3058 3059 3059 3057 3054 3051 3047 3044 3040 3038 3036 3036 3035 3035 3034 3030 3029 3029 3029 3029 3029 3029 3028 3027 3026 3025 3025 3028 3032 3036 3038 3041 3047 3051
3067 3063 3059 3055 3052 3049 3048 3048 3050 3049 3047 3048 3050 3049 3051 3052 3051 3049 3045 3041 3040 3036 3035 3034 3034 3033 3031 3029 3028 3027 3026 3026 3026 3026 3025 3025 3023 3021 3020 3022 3025 3028 3033 3034 3036 3043 3046
3058 3053 3049 3046 3043 3040 3037 3036 3037 3040 3040 3040 3040 3041 3044 3045 3045 3043 3040 3036 3035 3033 3033 3033 3031 3031 3029 3026 3025 3024 3023 3023 3023 3023 3022 3020 3019 3017 3014 3019 3023 3024 3026 3031 3034 3040 3043
3049 3043 3039 3036 3033 3031 3028 3027 3026 3029 3032 3032 3031 3032 3036 3038 3039 3038 3035 3033 3033 3031 3032 3030 3031 3031 3026 3024 3023 3022 3021 3020 3020 3019 3018 3017 3015 3013 3015 3016 3016 3019 3024 3030 3033 3037 3042
3041 3036 3031 3027 3024 3022 3021 3019 3019 3020 3022 3024 3024 3025 3027 3033 3035 3034 3032 3031 3034 3032 3031 3030 3029 3026 3023 3022 3021 3020 3018 3016 3015 3015 3014 3013 3011 3008 3009 3014 3017 3015 3023 3028 3033 3037 3042
3033 3029 3024 3021 3017 3014 3011 3010 3010 3011 3013 3016 3018 3019 3022 3027 3030 3031 3028 3030 3028 3032 3031 3029 3027 3024 3022 3022 3021 3017 3015 3013 3011 3010 3009 3009 3005 3006 3008 3013 3015 3014 3023 3028 3034 3038 3043
3025 3020 3016 3012 3008 3006 3004 3001 3002 3003 3004 3008 3011 3012 3016 3021 3026 3025 3025 3027 3028 3030 3030 3029 3025 3024 3022 3023 3020 3016 3014 3011 3010 3008 3007 3005 3004 3004 3007 3011 3014 3016 3022 3027 3030 3035 3039
3017 3011 3006 3002 2999 2997 2993 2992 2991 2992 2996 3000 3003 3007 3010 3016 3023 3021 3023 3024 3026 3028 3029 3030 3026 3024 3023 3021 3019 3015 3013 3013 3009 3007 3005 3004 3003 3005 3008 3011 3015 3018 3023 3027 3028 3035 3039
3007 3001 2997 2993 2990 2988 2986 2985 2984 2984 2986 2991 2996 3001 3005 3011 3016 3018 3022 3023 3025 3028 3031 3029 3026 3025 3024 3023 3019 3016 3014 3011 3008 3006 3006 3009 3006 3007 3010 3013 3017 3022 3026 3031 3034 3035 3040
2997 2991 2987 2984 2981 2979 2979 2979 2978 2978 2980 2983 2991 2996 3000 3007 3012 3016 3019 3021 3025 3030 3026 3027 3026 3026 3026 3023 3019 3017 3015 3014 3010 3006 3006 3009 3012 3013 3014 3018 3022 3026 3029 3034 3036 3036 3039
2986 2980 2977 2974 2972 2970 2969 2969 2970 2971 2973 2978 2985 2991 2998 3005 3009 3012 3016 3020 3027 3024 3025 3027 3026 3028 3026 3025 3023 3021 3019 3017 3016 3013 3011 3012 3015 3017 3019 3020 3025 3030 3033 3035 3038 3039 3048
2975 2970 2967 2965 2963 2961 2959 2959 2961 2963 2968 2974 2982 2988 2995 3001 3007 3011 3015 3020 3021 3020 3022 3024 3026 3028 3029 3027 3026 3024 3023 3022 3020 3019 3018 3017 3020 3023 3024 3026 3028 3033 3035 3033 3039 3046 3053
2966 2962 2959 2957 2955 2953 2951 2952 2954 2958 2964 2972 2979 2984 2993 2999 3005 3009 3015 3019 3017 3018 3022 3024 3028 3030 3029 3029 3029 3027 3026 3025 3023 3021 3023 3024 3025 3026 3028 3030 3033 3033 3033 3034 3034 3043 3048
2958 2954 2952 2950 2947 2945 2942 2941 2944 2950 2959 2970 2977 2985 2992 2999 3003 3007 3013 3015 3017 3019 3022 3026 3029 3031 3030 3030 3029 3028 3028 3028 3027 3026 3026 3028 3028 3030 3031 3031 3034 3037 3038 3038 3035 3042 3052
2950 2947 2946 2944 2940 2938 2937 2937 2941 2949 2957 2967 2978 2986 2993 2998 3001 3006 3010 3015 3017 3019 3023 3027 3029 3030 3032 3032 3031 3030 3031 3032 3030 3029 3029 3029 3031 3035 3035 3035 3037 3040 3038 3036 3038 3042 3043
2946 2944 2941 2936 2932 2934 2934 2934 2935 2943 2954 2969 2976 2986 2993 2997 3001 3005 3009 3014 3017 3020 3024 3027 3029 3031 3032 3033 3032 3031 3032 3033 3032 3032 3031 3031 3033 3034 3036 3037 3038 3038 3037 3037 3037 3043 3045
2946 2940 2936 2933 2931 2929 2932 2934 2942 2955 2963 2968 2977 2988 2994 2997 3000 3004 3010 3013 3017 3021 3025 3028 3029 3032 3033 3034 3035 3034 3034 3034 3034 3034 3034 3035 3036 3036 3038 3041 3041 3042 3045 3046 3047 3049 3053
2946 2942 2935 2931 2929 2933 2939 2945 2952 2960 2968 2976 2981 2988 2996 2999 3001 3006 3010 3013 3017 3022 3026 3029 3031 3033 3035 3035 3036 3036 3036 3036 3036 3036 3036 3037 3038 3038 3040 3041 3042 3045 3047 3049 3050 3051 3053
2952 2944 2941 2940 2937 2945 2948 2954 2961 2967 2973 2980 2985 2988 2993 2995 3000 3005 3011 3014 3018 3021 3025 3029 3032 3034 3036 3037 3037 3037 3037 3038 3038 3038 3038 3040 3041 3042 3044 3045 3046 3047 3047 3048 3051 3053 3055
2961 2954 2953 2952 2950 2953 2956 2960 2967 2975 2979 2983 2988 2991 2995 2997 3000 3005 3010 3014 3018 3022 3026 3029 3032 3035 3036 3037 3038 3038 3039 3040 3040 3041 3041 3042 3044 3045 3046 3047 3048 3049 3051 3051 3052 3054 3056
2972 2966 2965 2964 2962 2963 2965 2971 2978 2981 2984 2986 2990 2993 2996 2997 3000 3006 3010 3015 3020 3025 3027 3030 3033 3036 3037 3039 3039 3040 3040 3040 3041 3043 3043 3044 3044 3046 3048 3047 3048 3050 3050 3051 3052 3054 3055
2978 2977 2975 2975 2973 2974 2975 2979 2983 2985 2988 2992 2995 2997 2997 2998 3001 3006 3011 3016 3021 3025 3028 3031 3033 3036 3039 3039 3040 3041 3042 3042 3043 3044 3045 3045 3045 3047 3048 3048 3052 3051 3051 3051 3051 3050 3050
2982 2981 2981 2981 2983 2983 2984 2985 2986 2989 2993 2995 2997 2998 2999 3000 3003 3008 3012 3017 3021 3026 3029 3032 3034 3037 3039 3041 3042 3043 3043 3044 3044 3045 3045 3046 3046 3047 3048 3048 3050 3049 3050 3052 3051 3052 3050
2987 2987 2986 2984 2987 2989 2988 2988 2990 2993 2996 2997 2998 2999 3001 3001 3005 3009 3013 3017 3022 3026 3029 3032 3035 3037 3040 3041 3042 3042 3043 3044 3044 3044 3045 3046 3047 3049 3049 3049 3049 3049 3049 3050 3049 3048 3047
2987 2987 2987 2988 2988 2989 2990 2990 2993 2994 2998 3000 3000 3002 3004 3005 3007 3011 3015 3018 3022 3026 3029 3032 3034 3037 3039 3040 3042 3043 3043 3044 3044 3044 3045 3045 3046 3047 3047 3047 3047 3046 3047 3048 3049 3052 3045
2988 2987 2989 2989 2989 2992 2993 2994 2996 2999 3001 3002 3003 3004 3006 3007 3009 3012 3016 3019 3022 3026 3029 3032 3036 3036 3038 3040 3042 3042 3042 3042 3043 3043 3043 3044 3044 3044 3045 3045 3045 3044 3045 3047 3046 3043 3042
2989 2989 2990 2990 2991 2993 2994 2995 2998 3001 3003 3005 3006 3006 3007 3010 3011 3014 3017 3020 3023 3026 3030 3031 3034 3035 3037 3038 3039 3040 3040 3040 3040 3041 3040 3042 3042 3043 3044 3042 3042 3042 3042 3042 3040 3039 3036